(458679) = 2011 HA36

Discovered at Mount Lemmon on 2008-11-07 by Mt. Lemmon Survey.

Orbit

Orbit type: Main Belt

Note: WebGL enabled browser required.

epoch2022-01-21.0
epoch JD2459600.5
perihelion date2021-08-23.66178
perihelion JD2459450.16178
argument of perihelion (°)319.62850
ascending node (°)197.86096
inclination (°)7.73844
eccentricity0.0226097
perihelion distance (AU)3.1335707
Tisserand w.r.t. Jupiter3.2
ΔV w.r.t. Earth (km/sec)11.2
semimajor axis (AU)3.2060587
mean anomaly (°)25.81167
mean daily motion (°/day)0.17169070
aphelion distance (AU)3.279
period (years)5.74
P-vector [x]-0.92199993
P-vector [y]0.38080337
P-vector [z]0.07003511
Q-vector [x]-0.38498124
Q-vector [y]-0.88232555
Q-vector [z]-0.27072323
absolute magnitude16.34
phase slope0.15
uncertainty0
referenceMPO 700144
observations used178
oppositions10
arc length (days)6223
first opposition used2005
last opposition used2022
residual rms (arc-secs)0.84
perturbers coarse indicatorM-v
perturbers precise indicator003Ek
first observation date used2005-04-10.0
last observation date used2022-04-24.0
computer namePan
JD of orbit computation2457429.840121
perihelion JD uncertainty (days)1.2611E-03
argument of perihelion uncertainty (°)2.2667E-04
ascending node uncertainty (°)4.3105E-05
inclination uncertainty (°)1.0374E-05
eccentricity uncertainty 9.1792E-08
perihelion distance uncertainty (AU)3.2184E-07
Minimum Orbit Intersection Distances (in AU)
for orbit epoch: 2458200.5, reference: MPO413528
Mercury2.71839
Venus2.41691
Earth2.13795
Mars1.4829
Jupiter1.68816
Saturn5.93073
Uranus15.0713
Neptune26.6092

Observations

181 total observations over interval: 2005 04 10.35822 – 2022 04 24.245625
These data are available for download (format description).

Date (UT) J2000 RA J2000 Dec Magn Location Ref
2005 04 10.35822 14 23 48.12 -11 24 30.6 17.4 R G96 – Mt. Lemmon Survey MPS 515320
2005 04 10.36485 14 23 47.82 -11 24 27.9 19.3 R G96 – Mt. Lemmon Survey MPS 515320
2005 04 10.37147 14 23 47.55 -11 24 25.9 19.5 R G96 – Mt. Lemmon Survey MPS 515320
2005 04 10.37809 14 23 47.29 -11 24 23.1 20.4 R G96 – Mt. Lemmon Survey MPS 515320
2007 10 14.22032 00 05 15.79 +02 43 34.6 21.1 V G96 – Mt. Lemmon Survey MPS 515320
2007 10 14.22725 00 05 15.57 +02 43 32.2 21.1 V G96 – Mt. Lemmon Survey MPS 515320
2007 10 14.23416 00 05 15.32 +02 43 29.4 21.6 V G96 – Mt. Lemmon Survey MPS 515320
2007 10 14.24104 00 05 15.03 +02 43 26.9 21.0 V G96 – Mt. Lemmon Survey MPS 515320
2008 11 07.41409 05 33 14.36 +14 48 04.3 20.8 V G96 – Mt. Lemmon Survey MPS 515320
2008 11 07.42188 05 33 14.14 +14 48 02.6 20.8 V G96 – Mt. Lemmon Survey MPS 515320
2008 11 07.42961 05 33 13.93 +14 48 01.1 20.6 V G96 – Mt. Lemmon Survey MPS 515320
2008 11 07.43735 05 33 13.71 +14 48 00.2 20.7 V G96 – Mt. Lemmon Survey MPS 515320
2009 01 01.29441 04 54 11.30 +12 51 58.2 20.6 V G96 – Mt. Lemmon Survey MPS 515320
2009 01 01.30210 04 54 10.98 +12 51 58.2 20.2 V G96 – Mt. Lemmon Survey MPS 515320
2009 01 01.30976 04 54 10.69 +12 51 58.0 20.5 V G96 – Mt. Lemmon Survey MPS 515320
2009 01 01.31738 04 54 10.40 +12 51 57.7 20.7 V G96 – Mt. Lemmon Survey MPS 515320
2011 04 13.42218 15 58 27.84 -14 51 58.2 21.1 V G96 – Mt. Lemmon Survey MPS 511161
2011 04 13.42947 15 58 27.69 -14 51 56.4 21.3 V G96 – Mt. Lemmon Survey MPS 511161
2011 04 13.43672 15 58 27.48 -14 51 54.2 20.9 V G96 – Mt. Lemmon Survey MPS 511161
2011 04 13.44406 15 58 27.30 -14 51 53.3 20.7 V G96 – Mt. Lemmon Survey MPS 511161
2011 04 29.31850 15 50 28.99 -13 42 32.2 20.8 V 691 – Steward Observatory, Kitt Peak-Spacewatch MPS 381332
2011 04 29.33974 15 50 28.18 -13 42 26.4 20.8 V 691 – Steward Observatory, Kitt Peak-Spacewatch MPS 381332
2011 04 29.35752 15 50 27.48 -13 42 21.8 20.8 V 691 – Steward Observatory, Kitt Peak-Spacewatch MPS 381332
2011 04 30.34857 15 49 49.62 -13 37 47.8 20.9 V G96 – Mt. Lemmon Survey MPS 381332
2011 04 30.35229 15 49 49.44 -13 37 46.9 20.6 V G96 – Mt. Lemmon Survey MPS 381332
2011 04 30.35602 15 49 49.33 -13 37 46.2 20.0 V G96 – Mt. Lemmon Survey MPS 381332
2011 04 30.35975 15 49 49.18 -13 37 45.1 20.1 V G96 – Mt. Lemmon Survey MPS 381332
2011 06 04.21197 15 25 03.18 -11 14 04.9 20.8 V G96 – Mt. Lemmon Survey MPS 511161
2011 06 04.22069 15 25 02.85 -11 14 03.3 20.7 V G96 – Mt. Lemmon Survey MPS 511161
2011 06 04.22944 15 25 02.49 -11 14 01.6 20.8 V G96 – Mt. Lemmon Survey MPS 511161
2011 06 04.23821 15 25 02.13 -11 14 00.2 20.5 V G96 – Mt. Lemmon Survey MPS 511161
2013 09 13.40006 01 48 17.80 +11 09 28.8 21.5 V G96 – Mt. Lemmon Survey MPS 515320
2013 09 13.40917 01 48 17.65 +11 09 26.8 21.4 V G96 – Mt. Lemmon Survey MPS 515320
2013 09 13.41822 01 48 17.42 +11 09 24.6 21.5 V G96 – Mt. Lemmon Survey MPS 515320
2013 09 13.42733 01 48 17.24 +11 09 22.7 20.8 V G96 – Mt. Lemmon Survey MPS 515320
2013 10 03.25262 01 38 11.68 +09 31 59.3 20.7 V G96 – Mt. Lemmon Survey MPS 515320
2013 10 03.26029 01 38 11.34 +09 31 56.7 21.0 V G96 – Mt. Lemmon Survey MPS 515320
2013 10 03.26808 01 38 11.04 +09 31 53.8 20.9 V G96 – Mt. Lemmon Survey MPS 515320
2013 10 03.27580 01 38 10.73 +09 31 51.4 21.1 V G96 – Mt. Lemmon Survey MPS 515320
2013 10 12.39736 01 32 01.89 +08 37 10.7 20.5 V G96 – Mt. Lemmon Survey MPS 515320
2013 10 12.40443 01 32 01.58 +08 37 07.7 20.3 V G96 – Mt. Lemmon Survey MPS 515320
2013 10 12.41144 01 32 01.27 +08 37 05.7 20.2 V G96 – Mt. Lemmon Survey MPS 515320
2013 10 13.22153 01 31 27.59 +08 32 06.3 20.1 V G96 – Mt. Lemmon Survey MPS 515320
2013 10 13.22906 01 31 27.28 +08 32 03.5 20.5 V G96 – Mt. Lemmon Survey MPS 515320
2013 10 13.23662 01 31 26.94 +08 32 00.7 20.2 V G96 – Mt. Lemmon Survey MPS 515320
2013 10 13.24413 01 31 26.67 +08 31 57.7 20.9 V G96 – Mt. Lemmon Survey MPS 515320
2013 10 22.38734 01 25 02.27 +07 35 37.8 21.0 V G96 – Mt. Lemmon Survey MPS 515320
2013 10 22.39201 01 25 02.07 +07 35 35.8 20.9 V G96 – Mt. Lemmon Survey MPS 515320
2013 10 22.39669 01 25 01.82 +07 35 33.9 20.8 V G96 – Mt. Lemmon Survey MPS 515320
2013 10 22.40138 01 25 01.61 +07 35 32.3 21.6 V G96 – Mt. Lemmon Survey MPS 515320
2016 01 08.57788 12 02 29.781 -05 31 48.32 22.1 w F51 – Pan-STARRS 1, Haleakala MPS 665540
2016 01 08.58991 12 02 30.033 -05 31 50.02 22.2 w F51 – Pan-STARRS 1, Haleakala MPS 665540
2016 01 08.60193 12 02 30.266 -05 31 52.05 22.0 w F51 – Pan-STARRS 1, Haleakala MPS 665540
2016 01 08.61395 12 02 30.554 -05 31 53.98 22.2 w F51 – Pan-STARRS 1, Haleakala MPS 665540
2016 01 18.60466 12 05 17.889 -05 50 20.01 22.1 w F51 – Pan-STARRS 1, Haleakala MPS 671871
2016 01 18.62842 12 05 18.117 -05 50 21.98 22.0 w F51 – Pan-STARRS 1, Haleakala MPS 671871
2016 01 18.64030 12 05 18.251 -05 50 22.86 22.3 w F51 – Pan-STARRS 1, Haleakala MPS 671871
2016 02 10.52201 12 04 10.700 -05 36 38.00 21.5 w F51 – Pan-STARRS 1, Haleakala MPS 679154
2016 02 10.53496 12 04 10.465 -05 36 36.07 21.3 w F51 – Pan-STARRS 1, Haleakala MPS 679154
2016 02 10.54792 12 04 10.219 -05 36 34.23 21.4 w F51 – Pan-STARRS 1, Haleakala MPS 679154
2016 02 10.56092 12 04 09.983 -05 36 32.26 21.5 w F51 – Pan-STARRS 1, Haleakala MPS 679154
2016 03 01.47681 11 55 05.874 -04 17 45.13 20.8 r F51 – Pan-STARRS 1, Haleakala MPS 690124
2016 03 01.50698 11 55 04.767 -04 17 35.41 21.1 r F51 – Pan-STARRS 1, Haleakala MPS 690124
2016 03 01.52241 11 55 04.168 -04 17 30.38 20.9 r F51 – Pan-STARRS 1, Haleakala MPS 690124
2016 03 11.42366 11 48 40.536 -03 19 33.64 21.0 w F51 – Pan-STARRS 1, Haleakala MPS 692588
2016 03 11.43683 11 48 39.967 -03 19 28.61 20.9 w F51 – Pan-STARRS 1, Haleakala MPS 692588
2016 03 11.45001 11 48 39.387 -03 19 23.82 21.0 w F51 – Pan-STARRS 1, Haleakala MPS 692588
2016 03 19.19104 11 43 20.79 -02 29 07.0 21.2 V G96 – Mt. Lemmon Survey MPS 695937
2016 03 19.19716 11 43 20.50 -02 29 03.9 20.5 V G96 – Mt. Lemmon Survey MPS 695937
2016 03 19.20327 11 43 20.29 -02 29 01.5 20.8 V G96 – Mt. Lemmon Survey MPS 695937
2016 03 19.20940 11 43 20.05 -02 28 59.4 21.3 V G96 – Mt. Lemmon Survey MPS 695937
2016 03 28.13168 11 37 22.45 -01 29 21.4 21.3 V W84 – Cerro Tololo-DECam MPS 804856
2016 03 28.13484 11 37 22.32 -01 29 20.2   W84 – Cerro Tololo-DECam MPS 804856
2016 03 28.13801 11 37 22.20 -01 29 18.8   W84 – Cerro Tololo-DECam MPS 804856
2016 03 28.14120 11 37 22.07 -01 29 17.6   W84 – Cerro Tololo-DECam MPS 804856
2016 03 28.14442 11 37 21.94 -01 29 16.3   W84 – Cerro Tololo-DECam MPS 804856
2016 04 01.30751 11 34 46.83 -01 02 04.6 21.0 V G96 – Mt. Lemmon Survey MPS 698678
2016 04 01.31075 11 34 46.70 -01 02 03.5 21.6 V G96 – Mt. Lemmon Survey MPS 698678
2016 04 01.31398 11 34 46.53 -01 02 01.9 21.4 V G96 – Mt. Lemmon Survey MPS 698678
2016 04 01.31722 11 34 46.43 -01 02 00.6 21.4 V G96 – Mt. Lemmon Survey MPS 698678
2016 04 01.33978 11 34 45.58 -01 01 51.9 21.0 V 691 – Steward Observatory, Kitt Peak-Spacewatch MPS 698678
2016 04 01.34441 11 34 45.41 -01 01 49.9 20.9 V 691 – Steward Observatory, Kitt Peak-Spacewatch MPS 698678
2016 04 01.34903 11 34 45.22 -01 01 48.3 21.1 V 691 – Steward Observatory, Kitt Peak-Spacewatch MPS 698678
2016 04 01.37433 11 34 44.32 -01 01 38.3 20.9 V G96 – Mt. Lemmon Survey MPS 698678
2016 04 01.37647 11 34 44.25 -01 01 37.2 20.7 V G96 – Mt. Lemmon Survey MPS 698678
2016 04 01.37862 11 34 44.20 -01 01 36.9 21.2 V G96 – Mt. Lemmon Survey MPS 698678
2016 04 01.38076 11 34 44.07 -01 01 36.3 20.9 V G96 – Mt. Lemmon Survey MPS 698678
2018 08 11.50470 22 04 53.280 -02 43 04.62 21.3 w F51 – Pan-STARRS 1, Haleakala MPS 910926
2018 08 11.51670 22 04 52.781 -02 43 07.68 21.2 w F51 – Pan-STARRS 1, Haleakala MPS 910926
2018 08 11.52877 22 04 52.286 -02 43 10.85 21.2 w F51 – Pan-STARRS 1, Haleakala MPS 910926
2018 10 02.32257 21 36 36.927 -07 06 53.00 21.8 w F52 – Pan-STARRS 2, Haleakala MPS 924031
2018 10 02.33577 21 36 36.784 -07 06 56.34 21.5 w F52 – Pan-STARRS 2, Haleakala MPS 924031
2018 10 02.34887 21 36 36.604 -07 06 59.87 21.6 w F52 – Pan-STARRS 2, Haleakala MPS 924031
2019 09 24.48066 03 06 55.739 +14 22 58.86 21.6 w F51 – Pan-STARRS 1, Haleakala MPS 1056567
